TITAN 3C TRANSTAGE DEB, 26526

Orbit data source: Space-Track

TITAN 3C TRANSTAGE DEB, 26526 is space debris in HEO originally from a launch on Tue, 21 Dec 1965 UTC launched from the Air Force Eastern Test Range (AFETR). Debris objects in space refer to the collection of defunct objects orbiting the Earth. Examples of debris include non-operational satellites, rocket bodies, and fragments generated from explosions, collisions, or faulty payload assembly.

Loading next visibility...
TITAN 3C TRANSTAGE DEB details
Identifier
26526, 1965-108AM
Orbit
HEO
Last TLE update2 months ago
Origin
Flag of USUSAF SSD (US)
ManufacturerUnknown
MissionSpacecraft
Bus & MotorUnknown
MassUnknown
Launch date (UTC)
1965-12-21 (59 years ago)
Launch vehicleUnknown
Launch site
Air Force Eastern Test Range (AFETR)
Object type
Payload
Rocket body
Debris
Shape & HBRUnknown
Radar Cross SectionSmall (<0.1 m²)

Expand to show TLE details & history

TLE from 2 months ago
0 TITAN 3C TRANSTAGE DEB
1 26526U 65108AM  24298.24131281  .00000584  00000-0  35549-2 0  9993
2 26526  27.0953 271.9805 6511654 243.4914 289.0941  3.11000988 61163
Epoch: 2024-10-24T05:47Z
Definitive object data (Epoch: 2024-10-24T05:47:29.426Z)
Latitude26.55104°
Longitude-105.36752°
Altitude17,158.249 km
Speed3.711 km/s
True Right ascension00h 58m 31s
True Declination26° 30' 34"
Sunlit
Object was in daylight at TLE epoch
Visualization TLE readout
Latitude26.77651°
Longitude-156.80744°
Altitude19,452.853 km
Speed3.28 km/s
Apparent Right ascension20h 47m 16s
Apparent Declination17° 10' 16"
Sunlit
Object is in daylight
Visualization observer readout
Local Sidereal Time04:14:26
Azimuth297.103° NW
Elevation-4.739°
Doppler factor1
Orbital elements
Apogee altitude26,363.083 km
Perigee altitude538.959 km
Semi-major axis19,829.158 km
Eccentricity0.6511654
Inclination27.0953°
RAAN271.9805°
Arg. of periapsis243.4914°
True anomaly217.79082°
Mean anomaly289.0941°
Eccentric anomaly253.34944°
Mean motion0.7773 °/min
BSTAR0.0035549
Orbital period463.14 mins
Loading maneuver chart data...

TITAN 3C TRANSTAGE DEB Visibility forecast

Observer location: undefined°, undefined

Span
Click to sort rows by Start time (UTC) header in descending order
Start Az.
Max El. time (UTC)
Max El. Az.
Max El.
End time (UTC)
End Az.
392 mins2024-12-22 19:07:53.820Z214.916° SW2024-12-22 19:48:53.820Z136.7° SSE40.531°2024-12-23 01:39:53.820Z120.17° SE
|